Location: Bourg-d�Oueil
(42.8588°N, 0.4991°E)
Time: 18:18:48
(UTC+00:00)

Cosmos 1741 Rocket - Pass Details

Date: 16 June 2021
Orbit: 761 x 783 km, 74.0° (Epoch: 01 August)

Event Time Altitude Azimuth Distance (km) Brightness Sun altitude
Rises 21:36:51 0° 337° (NNW) 3,245 8.9 -16.1°
Reaches altitude 10° 21:39:14 10° 335° (NNW) 2,318 7.8 -16.4°
Maximum altitude 21:44:27 67° 254° (WSW) 835 4.2 -16.9°
Enters shadow 21:47:29 25° 177° (S) 1,509 5.0 -17.2°
